Location: Artiguedieu
(43.5000°N, 0.5454°E)
Time: 10:37:41
(UTC+00:00)

Vanguard 1 Rocket - Pass Details

Date: 30 July 2021
Orbit: 650 x 4226 km, 34.3° (Epoch: 24 September)

Event Time Altitude Azimuth Distance (km) Brightness Sun altitude
Rises 06:40:56 0° 187° (S) 8,439 12.2 19.1°
Reaches altitude 10° 06:51:27 10° 169° (SSE) 7,105 12.1 21.0°
Maximum altitude 07:01:52 15° 141° (SE) 6,024 12.2 22.9°
Drops below altitude 10° 07:10:21 10° 113° (ESE) 5,707 12.7 24.4°
Sets 07:16:44 0° 93° (E) 6,018 12.9 25.6°
